Torna al catalogo

STARLINK-34628

AttivoComunicazioniSSO
NORAD 64864·PAYLOAD·🇺🇸 United States

Lanciato Jul 19, 2025 da Vandenberg Space Force Base

Loading…

Prossimi Passaggi (prossime 24 ore)

TLE

AggiornatoSource: CelesTrak SupGP

Epoca: Sep 14, 2026, 14:30 UTC

1 64864C 25152Y   26257.60465278  .00002523  00000+0  78282-4 0  2572
2 64864  97.2842 108.2096 0002015  87.4857  62.0150 15.33446378    14

Traccia STARLINK-34628 in tempo reale con AllMySat

Download on the App Store